,,,PA_Meas_PMT16A,,PR_Meas_QMR101_102,,RH_Meas_QMH101,,SR_Meas_QMS101,,TA_Meas_QMH101,,GenWind,,GenWind,
date,time,status,PA,status,PR,status,RH,status,SR,status,TA,status,DirAvg,status,SpdAvg,
2009-07-15, 00:00:04,VALID,1000.27,VALID,0,VALID,88.9919,VALID,0,VALID,23.0396,VALID,2,VALID,0.157031,
2009-07-15, 00:01:04,VALID,1000.26,VALID,0,VALID,89.5565,VALID,0,VALID,22.9793,VALID,2,VALID,0.476563,
2009-07-15, 00:02:04,VALID,1000.23,VALID,0,VALID,89.8388,VALID,0,VALID,22.9811,VALID,57,VALID,0.7625,
2009-07-15, 00:03:04,VALID,1000.25,VALID,0,VALID,89.381,VALID,0,VALID,22.9811,VALID,58,VALID,0.938281,
2009-07-15, 00:04:04,VALID,1000.21,VALID,0,VALID,89.6938,VALID,0,VALID,22.9403,VALID,60,VALID,1.12539,
2009-07-15, 00:05:04,VALID,1000.19,VALID,0,VALID,90.0219,VALID,0,VALID,22.9403,VALID,61,VALID,1.33203,
2009-07-15, 00:06:04,VALID,1000.19,VALID,0,VALID,89.8769,VALID,0,VALID,22.9793,VALID,57,VALID,1.03984,
2009-07-15, 00:07:04,VALID,1000.11,VALID,0,VALID,90.4644,VALID,0,VALID,23.0183,VALID,44,VALID,1.26211,
2009-07-15, 00:08:04,VALID,1000.12,VALID,0,VALID,90.6857,VALID,0,VALID,23.0573,VALID,50,VALID,0.90625,
2009-07-15, 00:09:04,VALID,1000.13,VALID,0,VALID,90.2355,VALID,0,VALID,23.0573,VALID,50,VALID,0.458984,
2009-07-15, 00:10:04,VALID,1000.06,VALID,0,VALID,89.8083,VALID,0,VALID,23.0396,VALID,50,VALID,0.469141,
2009-07-15, 00:11:04,VALID,1000.06,VALID,0,VALID,89.381,VALID,0,VALID,22.9403,VALID,50,VALID,0.341797,
2009-07-15, 00:12:04,VALID,1000.01,VALID,0,VALID,89.8617,VALID,0,VALID,22.8623,VALID,50,VALID,0.507031,
2009-07-15, 00:13:04,VALID,999.982,VALID,0,VALID,90.0524,VALID,0,VALID,22.8427,VALID,27,VALID,0.925,
2009-07-15, 00:14:04,VALID,999.998,VALID,0,VALID,90.7162,VALID,0,VALID,22.8232,VALID,34,VALID,0.980078,
2009-07-15, 00:15:04,VALID,999.946,VALID,0,VALID,90.9451,VALID,0,VALID,22.8427,VALID,41,VALID,0.917969,
2009-07-15, 00:16:04,VALID,999.959,VALID,0,VALID,90.3652,VALID,0,VALID,22.8232,VALID,46,VALID,0.909375,
2009-07-15, 00:17:04,VALID,999.935,VALID,0,VALID,90.0906,VALID,0,VALID,22.8037,VALID,39,VALID,0.628516,
2009-07-15, 00:18:04,VALID,999.94,VALID,0,VALID,90.0219,VALID,0,VALID,22.7452,VALID,39,VALID,1.05234,
2009-07-15, 00:19:04,VALID,999.938,VALID,0,VALID,90.1211,VALID,0,VALID,22.6867,VALID,33,VALID,0.863672,
2009-07-15, 00:20:04,VALID,999.932,VALID,0,VALID,89.7472,VALID,0,VALID,22.6087,VALID,33,VALID,0.219141,
2009-07-15, 00:21:04,VALID,999.918,VALID,0,VALID,90.3118,VALID,0,VALID,22.5501,VALID,13,VALID,0.50625,
2009-07-15, 00:22:04,VALID,999.917,VALID,0,VALID,90.6628,VALID,0,VALID,22.5306,VALID,13,VALID,0.649219,
2009-07-15, 00:23:04,VALID,999.911,VALID,0,VALID,90.6933,VALID,0,VALID,22.4916,VALID,14,VALID,0.925391,
2009-07-15, 00:24:04,VALID,999.926,VALID,0,VALID,90.5331,VALID,0,VALID,22.4543,VALID,14,VALID,0.964844,
2009-07-15, 00:25:04,VALID,999.932,VALID,0,VALID,91.1129,VALID,0,VALID,22.3746,VALID,13,VALID,0.866797,
2009-07-15, 00:26:04,VALID,999.937,VALID,0,VALID,91.3494,VALID,0,VALID,22.3746,VALID,359,VALID,0.871094,
2009-07-15, 00:27:04,VALID,999.938,VALID,0,VALID,91.5554,VALID,0,VALID,22.3356,VALID,359,VALID,0.483594,
2009-07-15, 00:28:04,VALID,999.944,VALID,0,VALID,91.8835,VALID,0,VALID,22.3551,VALID,359,VALID,0.497266,
2009-07-15, 00:29:04,VALID,999.934,VALID,0,VALID,91.9522,VALID,0,VALID,22.3746,VALID,12,VALID,0.702734,
2009-07-15, 00:30:04,VALID,999.966,VALID,0,VALID,92.1124,VALID,0,VALID,22.3763,VALID,32,VALID,0.546484,
2009-07-15, 00:31:04,VALID,999.968,VALID,0,VALID,92.12,VALID,0,VALID,22.3551,VALID,32,VALID,0.517187,
2009-07-15, 00:32:04,VALID,999.966,VALID,0,VALID,92.0514,VALID,0,VALID,22.2966,VALID,32,VALID,0.0304688,
2009-07-15, 00:33:04,VALID,999.944,VALID,0,VALID,92.3108,VALID,0,VALID,22.2966,VALID,32,VALID,0.195703,
2009-07-15, 00:34:04,VALID,999.938,VALID,0,VALID,92.4863,VALID,0,VALID,22.3161,VALID,31,VALID,0.357031,
2009-07-15, 00:35:04,VALID,999.901,VALID,0,VALID,92.5931,VALID,0,VALID,22.3356,VALID,31,VALID,0.248828,
2009-07-15, 00:36:04,VALID,999.877,VALID,0,VALID,92.8754,VALID,0,VALID,22.3551,VALID,30,VALID,0.592969,
2009-07-15, 00:37:04,VALID,999.842,VALID,0,VALID,92.6846,VALID,0,VALID,22.3551,VALID,28,VALID,0.814844,
2009-07-15, 00:38:04,VALID,999.804,VALID,0,VALID,92.7075,VALID,0,VALID,22.3551,VALID,28,VALID,0.786328,
2009-07-15, 00:39:04,VALID,999.785,VALID,0,VALID,92.6312,VALID,0,VALID,22.3568,VALID,44,VALID,0.775781,
2009-07-15, 00:40:04,VALID,999.754,VALID,0,VALID,92.616,VALID,0,VALID,22.3161,VALID,44,VALID,0.385547,
2009-07-15, 00:41:04,VALID,999.742,VALID,0,VALID,92.738,VALID,0,VALID,22.3178,VALID,304,VALID,0.594531,
2009-07-15, 00:42:04,VALID,999.705,VALID,0,VALID,93.0127,VALID,0,VALID,22.3551,VALID,302,VALID,0.388281,
2009-07-15, 00:43:04,VALID,999.709,VALID,0,VALID,92.9288,VALID,0,VALID,22.3941,VALID,303,VALID,0.096875,
2009-07-15, 00:44:04,VALID,999.673,VALID,0,VALID,92.883,VALID,0,VALID,22.4331,VALID,303,VALID,0.162109,
2009-07-15, 00:45:04,VALID,999.665,VALID,0,VALID,92.6388,VALID,0,VALID,22.4526,VALID,304,VALID,0.514453,
2009-07-15, 00:46:04,VALID,999.618,VALID,0,VALID,92.4405,VALID,0,VALID,22.5111,VALID,327,VALID,0.470313,
2009-07-15, 00:47:04,VALID,999.577,VALID,0,VALID,92.3108,VALID,0,VALID,22.5696,VALID,327,VALID,0.456641,
2009-07-15, 00:48:04,VALID,999.546,VALID,0,VALID,92.0361,VALID,0,VALID,22.6104,VALID,327,VALID,0.314063,
2009-07-15, 00:49:04,VALID,999.564,VALID,0,VALID,92.0819,VALID,0,VALID,22.5892,VALID,327,VALID,0.197266,
2009-07-15, 00:50:04,VALID,999.561,VALID,0,VALID,92.12,VALID,0,VALID,22.5892,VALID,327,VALID,0.429688,
2009-07-15, 00:51:04,VALID,999.553,VALID,0,VALID,92.1506,VALID,0,VALID,22.6087,VALID,328,VALID,0.528516,
2009-07-15, 00:52:04,VALID,999.568,VALID,0,VALID,92.0361,VALID,0,VALID,22.5892,VALID,328,VALID,0.430469,
2009-07-15, 00:53:04,VALID,999.545,VALID,0,VALID,91.8072,VALID,0,VALID,22.5696,VALID,340,VALID,0.533984,
2009-07-15, 00:54:04,VALID,999.55,VALID,0,VALID,91.5936,VALID,0,VALID,22.5501,VALID,340,VALID,0.401563,
2009-07-15, 00:55:04,VALID,999.529,VALID,0,VALID,91.4563,VALID,0,VALID,22.5519,VALID,340,VALID,0.424219,
2009-07-15, 00:56:04,VALID,999.499,VALID,0,VALID,91.7691,VALID,0,VALID,22.5306,VALID,340,VALID,0.798047,
2009-07-15, 00:57:04,VALID,999.51,VALID,0,VALID,91.3189,VALID,0,VALID,22.5128,VALID,340,VALID,0.611328,
2009-07-15, 00:58:04,VALID,999.485,VALID,0,VALID,91.0443,VALID,0,VALID,22.3941,VALID,340,VALID,0.631641,
2009-07-15, 00:59:04,VALID,999.472,VALID,0,VALID,91.1968,VALID,0,VALID,22.3551,VALID,340,VALID,0.301562,
2009-07-15, 01:00:04,VALID,999.448,VALID,0,VALID,91.3037,VALID,0,VALID,22.2966,VALID,340,VALID,0.536719,
2009-07-15, 01:01:04,VALID,999.414,VALID,0,VALID,92.1277,VALID,0,VALID,22.3356,VALID,340,VALID,0.949219,
2009-07-15, 01:02:04,VALID,999.438,VALID,0,VALID,91.8759,VALID,0,VALID,22.3161,VALID,340,VALID,0.795313,
2009-07-15, 01:03:04,VALID,999.434,VALID,0,VALID,91.7233,VALID,0,VALID,22.2576,VALID,340,VALID,0.501953,
2009-07-15, 01:04:04,VALID,999.448,VALID,0,VALID,92.0895,VALID,0,VALID,22.2186,VALID,340,VALID,0.549219,
2009-07-15, 01:05:04,VALID,999.416,VALID,0,VALID,92.0514,VALID,0,VALID,22.199,VALID,340,VALID,0.282813,
2009-07-15, 01:06:04,VALID,999.46,VALID,0,VALID,92.059,VALID,0,VALID,22.1405,VALID,340,VALID,0,
2009-07-15, 01:07:04,VALID,999.463,VALID,0,VALID,92.1658,VALID,0,VALID,22.0803,VALID,340,VALID,0.0773437,
2009-07-15, 01:08:04,VALID,999.441,VALID,0,VALID,92.2116,VALID,0,VALID,22.0625,VALID,340,VALID,0.0363281,
2009-07-15, 01:09:04,VALID,999.437,VALID,0,VALID,92.3794,VALID,0,VALID,22.043,VALID,340,VALID,0.279687,
2009-07-15, 01:10:04,VALID,999.454,VALID,0,VALID,92.5931,VALID,0,VALID,22.0837,VALID,340,VALID,0.276953,
2009-07-15, 01:11:04,VALID,999.404,VALID,0,VALID,92.8677,VALID,0.112286,VALID,22.082,VALID,340,VALID,0.579687,
2009-07-15, 01:12:04,VALID,999.425,VALID,0,VALID,93.2034,VALID,0,VALID,22.1405,VALID,340,VALID,0.558594,
2009-07-15, 01:13:04,VALID,999.403,VALID,0,VALID,93.2645,VALID,0,VALID,22.1795,VALID,340,VALID,0.420312,
2009-07-15, 01:14:04,VALID,999.418,VALID,0,VALID,93.1653,VALID,0,VALID,22.1974,VALID,340,VALID,0.281641,
2009-07-15, 01:15:04,VALID,999.392,VALID,0,VALID,93.1729,VALID,0.112286,VALID,22.2186,VALID,340,VALID,0.328906,
2009-07-15, 01:16:04,VALID,999.411,VALID,0,VALID,93.1271,VALID,0,VALID,22.2186,VALID,340,VALID,0.132813,
2009-07-15, 01:17:04,VALID,999.422,VALID,0,VALID,93.1119,VALID,0,VALID,22.199,VALID,340,VALID,0.230078,
2009-07-15, 01:18:04,VALID,999.367,VALID,0,VALID,93.1882,VALID,0,VALID,22.199,VALID,340,VALID,0.417578,
2009-07-15, 01:19:04,VALID,999.376,VALID,0,VALID,93.3637,VALID,0,VALID,22.2576,VALID,340,VALID,0.352734,
2009-07-15, 01:20:04,VALID,999.373,VALID,0,VALID,93.3713,VALID,0,VALID,22.2966,VALID,340,VALID,0.357812,
2009-07-15, 01:21:04,VALID,999.369,VALID,0,VALID,93.3637,VALID,0,VALID,22.3161,VALID,340,VALID,0.31875,
2009-07-15, 01:22:04,VALID,999.388,VALID,0,VALID,93.234,VALID,0,VALID,22.3161,VALID,340,VALID,0.306641,
2009-07-15, 01:23:04,VALID,999.366,VALID,0,VALID,93.3408,VALID,0,VALID,22.3763,VALID,340,VALID,0.372656,
2009-07-15, 01:24:04,VALID,999.364,VALID,0,VALID,93.2111,VALID,0,VALID,22.3941,VALID,340,VALID,0.495313,
2009-07-15, 01:25:04,VALID,999.366,VALID,0,VALID,93.1653,VALID,0,VALID,22.3941,VALID,340,VALID,0.594922,
2009-07-15, 01:26:04,VALID,999.374,VALID,0,VALID,93.1424,VALID,0,VALID,22.4331,VALID,340,VALID,0.632031,
2009-07-15, 01:27:04,VALID,999.374,VALID,0,VALID,92.8067,VALID,0,VALID,22.4331,VALID,340,VALID,0.599609,
2009-07-15, 01:28:04,VALID,999.364,VALID,0,VALID,92.4786,VALID,0,VALID,22.3941,VALID,340,VALID,0.434375,
2009-07-15, 01:29:04,VALID,999.352,VALID,0,VALID,92.4939,VALID,0,VALID,22.3551,VALID,340,VALID,0.216797,
2009-07-15, 01:30:04,VALID,999.336,VALID,0,VALID,92.4328,VALID,0,VALID,22.3356,VALID,340,VALID,0.105859,
2009-07-15, 01:31:04,VALID,999.32,VALID,0,VALID,92.3794,VALID,0,VALID,22.3178,VALID,340,VALID,0,
2009-07-15, 01:32:04,VALID,999.307,VALID,0,VALID,92.3031,VALID,0.112286,VALID,22.2576,VALID,340,VALID,0.25625,
2009-07-15, 01:33:04,VALID,999.329,VALID,0,VALID,92.2116,VALID,0,VALID,22.199,VALID,340,VALID,0.255469,
2009-07-15, 01:34:04,VALID,999.332,VALID,0,VALID,92.3794,VALID,0,VALID,22.1405,VALID,340,VALID,0.148828,
2009-07-15, 01:35:04,VALID,999.308,VALID,0,VALID,92.7457,VALID,0,VALID,22.1405,VALID,340,VALID,0.403516,
2009-07-15, 01:36:04,VALID,999.313,VALID,0,VALID,92.7609,VALID,0,VALID,22.121,VALID,340,VALID,0.279297,
2009-07-15, 01:37:04,VALID,999.283,VALID,0,VALID,92.7304,VALID,0,VALID,22.082,VALID,340,VALID,0.291406,
2009-07-15, 01:38:04,VALID,999.313,VALID,0,VALID,92.7151,VALID,0,VALID,22.043,VALID,340,VALID,0.287891,
2009-07-15, 01:39:04,VALID,999.275,VALID,0,VALID,92.9593,VALID,0,VALID,22.0625,VALID,340,VALID,0.298438,
2009-07-15, 01:40:04,VALID,999.27,VALID,0,VALID,92.9593,VALID,0,VALID,22.043,VALID,340,VALID,0.286719,
2009-07-15, 01:41:04,VALID,999.252,VALID,0,VALID,92.8983,VALID,0,VALID,22.0023,VALID,340,VALID,0.341797,
2009-07-15, 01:42:04,VALID,999.228,VALID,0,VALID,92.7762,VALID,0,VALID,22.004,VALID,340,VALID,0.385547,
2009-07-15, 01:43:04,VALID,999.22,VALID,0,VALID,92.7991,VALID,0,VALID,22.0235,VALID,340,VALID,0.298438,
2009-07-15, 01:44:04,VALID,999.208,VALID,0,VALID,92.8372,VALID,0,VALID,22.004,VALID,340,VALID,0.253906,
2009-07-15, 01:45:04,VALID,999.201,VALID,0,VALID,92.9669,VALID,0,VALID,22.043,VALID,340,VALID,0.207422,
2009-07-15, 01:46:04,VALID,999.205,VALID,0,VALID,93.089,VALID,0.112286,VALID,22.082,VALID,340,VALID,0.381641,
2009-07-15, 01:47:04,VALID,999.196,VALID,0,VALID,93.1271,VALID,0,VALID,22.121,VALID,340,VALID,0.286719,
2009-07-15, 01:48:04,VALID,999.223,VALID,0,VALID,93.2111,VALID,0,VALID,22.1405,VALID,340,VALID,0.257422,
2009-07-15, 01:49:04,VALID,999.216,VALID,0,VALID,93.2263,VALID,0,VALID,22.1795,VALID,340,VALID,0.198828,
2009-07-15, 01:50:04,VALID,999.238,VALID,0,VALID,93.1805,VALID,0,VALID,22.199,VALID,340,VALID,0.246094,
2009-07-15, 01:51:04,VALID,999.214,VALID,0,VALID,93.0966,VALID,0,VALID,22.199,VALID,340,VALID,0.272656,
2009-07-15, 01:52:04,VALID,999.239,VALID,0,VALID,93.0966,VALID,0,VALID,22.199,VALID,340,VALID,0.254687,
2009-07-15, 01:53:04,VALID,999.217,VALID,0,VALID,93.0737,VALID,0,VALID,22.2186,VALID,340,VALID,0.444141,
2009-07-15, 01:54:04,VALID,999.237,VALID,0,VALID,93.028,VALID,0,VALID,22.199,VALID,340,VALID,0.534375,
2009-07-15, 01:55:04,VALID,999.172,VALID,0,VALID,93.0127,VALID,0,VALID,22.1795,VALID,340,VALID,0.654688,
2009-07-15, 01:56:04,VALID,999.166,VALID,0,VALID,92.8677,VALID,0,VALID,22.16,VALID,340,VALID,0.814062,
2009-07-15, 01:57:04,VALID,999.193,VALID,0,VALID,92.9898,VALID,0,VALID,22.121,VALID,3,VALID,0.91875,
2009-07-15, 01:58:04,VALID,999.177,VALID,0,VALID,92.9974,VALID,0,VALID,22.0625,VALID,5,VALID,0.525,
2009-07-15, 01:59:04,VALID,999.123,VALID,0,VALID,92.677,VALID,0,VALID,21.9455,VALID,5,VALID,0.544141,
2009-07-15, 02:00:04,VALID,999.145,VALID,0,VALID,93.0051,VALID,0,VALID,21.926,VALID,5,VALID,0.451172,
2009-07-15, 02:01:04,VALID,999.132,VALID,0,VALID,93.089,VALID,0,VALID,21.9065,VALID,5,VALID,0.652734,
2009-07-15, 02:02:04,VALID,999.142,VALID,0,VALID,93.1424,VALID,0,VALID,21.8675,VALID,18,VALID,0.801562,
2009-07-15, 02:03:04,VALID,999.161,VALID,0,VALID,93.3484,VALID,0.112286,VALID,21.8675,VALID,18,VALID,0.705469,
2009-07-15, 02:04:04,VALID,999.145,VALID,0,VALID,93.4781,VALID,0,VALID,21.887,VALID,18,VALID,0.666016,
2009-07-15, 02:05:04,VALID,999.182,VALID,0,VALID,93.1119,VALID,0,VALID,21.8285,VALID,18,VALID,0.774609,
2009-07-15, 02:06:04,VALID,999.165,VALID,0,VALID,92.8448,VALID,0,VALID,21.7505,VALID,18,VALID,0.453906,
2009-07-15, 02:07:04,VALID,999.189,VALID,0,VALID,93.0356,VALID,0.112286,VALID,21.731,VALID,18,VALID,0.275781,
2009-07-15, 02:08:04,VALID,999.193,VALID,0,VALID,93.0585,VALID,0,VALID,21.7115,VALID,18,VALID,0.386328,
2009-07-15, 02:09:04,VALID,999.262,VALID,0,VALID,93.1348,VALID,0,VALID,21.7115,VALID,18,VALID,0.0824219,
2009-07-15, 02:10:04,VALID,999.25,VALID,0,VALID,93.3484,VALID,0,VALID,21.731,VALID,18,VALID,0,
2009-07-15, 02:11:04,VALID,999.297,VALID,0,VALID,93.3408,VALID,0,VALID,21.731,VALID,18,VALID,0,
2009-07-15, 02:12:04,VALID,999.285,VALID,0,VALID,93.4323,VALID,0,VALID,21.7505,VALID,18,VALID,0.0316406,
2009-07-15, 02:13:04,VALID,999.319,VALID,0,VALID,93.6765,VALID,0,VALID,21.848,VALID,18,VALID,0.405859,
2009-07-15, 02:14:04,VALID,999.271,VALID,0,VALID,93.7223,VALID,0,VALID,21.887,VALID,18,VALID,0.00117188,
2009-07-15, 02:15:04,VALID,999.298,VALID,0,VALID,93.768,VALID,0,VALID,21.926,VALID,18,VALID,0.137891,
2009-07-15, 02:16:04,VALID,999.256,VALID,0,VALID,93.7833,VALID,0,VALID,21.965,VALID,18,VALID,0.0984375,
2009-07-15, 02:17:04,VALID,999.271,VALID,0,VALID,93.6002,VALID,0,VALID,21.9845,VALID,18,VALID,0.420703,
2009-07-15, 02:18:04,VALID,999.251,VALID,0,VALID,93.44,VALID,0,VALID,21.965,VALID,18,VALID,0.524219,
2009-07-15, 02:19:04,VALID,999.231,VALID,0,VALID,93.6612,VALID,0,VALID,21.965,VALID,18,VALID,1.03672,
2009-07-15, 02:20:04,VALID,999.244,VALID,0,VALID,93.4247,VALID,0,VALID,21.965,VALID,18,VALID,0.708984,
2009-07-15, 02:21:04,VALID,999.247,VALID,0,VALID,93.4094,VALID,0,VALID,21.9455,VALID,18,VALID,0.823047,
2009-07-15, 02:22:04,VALID,999.229,VALID,0,VALID,93.5468,VALID,0,VALID,21.965,VALID,18,VALID,1.21445,
2009-07-15, 02:23:04,VALID,999.203,VALID,0,VALID,93.4628,VALID,0,VALID,21.9845,VALID,18,VALID,1.24297,
2009-07-15, 02:24:04,VALID,999.226,VALID,0,VALID,93.0127,VALID,0.112286,VALID,21.9065,VALID,20,VALID,1.12266,
2009-07-15, 02:25:04,VALID,999.241,VALID,0,VALID,93.3103,VALID,0,VALID,21.8675,VALID,28,VALID,1.10391,
2009-07-15, 02:26:04,VALID,999.221,VALID,0,VALID,93.0814,VALID,0.112286,VALID,21.8675,VALID,28,VALID,1.09102,
2009-07-15, 02:27:04,VALID,999.23,VALID,0,VALID,93.0737,VALID,0,VALID,21.7895,VALID,21,VALID,1.15313,
2009-07-15, 02:28:04,VALID,999.296,VALID,0,VALID,93.2874,VALID,0.112286,VALID,21.7895,VALID,19,VALID,0.655078,
2009-07-15, 02:29:04,VALID,999.297,VALID,0,VALID,93.4934,VALID,0,VALID,21.7895,VALID,19,VALID,0.580078,
2009-07-15, 02:30:04,VALID,999.283,VALID,0,VALID,93.6612,VALID,0.112286,VALID,21.809,VALID,19,VALID,1.02578,
2009-07-15, 02:31:04,VALID,999.286,VALID,0,VALID,93.6688,VALID,0,VALID,21.848,VALID,18,VALID,0.732813,
2009-07-15, 02:32:04,VALID,999.271,VALID,0,VALID,93.6688,VALID,0,VALID,21.848,VALID,18,VALID,0.842188,
2009-07-15, 02:33:04,VALID,999.269,VALID,0,VALID,93.6765,VALID,0,VALID,21.8675,VALID,18,VALID,1.15195,
2009-07-15, 02:34:04,VALID,999.29,VALID,0,VALID,93.6765,VALID,0,VALID,21.8675,VALID,14,VALID,1.25508,
2009-07-15, 02:35:04,VALID,999.273,VALID,0,VALID,93.6994,VALID,0,VALID,21.848,VALID,15,VALID,1.62148,
2009-07-15, 02:36:04,VALID,999.279,VALID,0,VALID,93.4552,VALID,0.112286,VALID,21.809,VALID,21,VALID,1.43203,
2009-07-15, 02:37:04,VALID,999.299,VALID,0,VALID,93.356,VALID,0,VALID,21.7895,VALID,19,VALID,1.3,
2009-07-15, 02:38:04,VALID,999.332,VALID,0,VALID,92.9669,VALID,0,VALID,21.6725,VALID,18,VALID,0.458984,
2009-07-15, 02:39:04,VALID,999.334,VALID,0,VALID,93.1805,VALID,0,VALID,21.6335,VALID,18,VALID,0.127344,
2009-07-15, 02:40:04,VALID,999.281,VALID,0,VALID,93.5544,VALID,0,VALID,21.6725,VALID,9,VALID,0.342969,
2009-07-15, 02:41:04,VALID,999.261,VALID,0,VALID,93.4171,VALID,0,VALID,21.653,VALID,343,VALID,0.672656,
2009-07-15, 02:42:04,VALID,999.286,VALID,0,VALID,93.2645,VALID,0,VALID,21.614,VALID,343,VALID,0.704297,
2009-07-15, 02:43:04,VALID,999.22,VALID,0,VALID,93.3942,VALID,0.112286,VALID,21.614,VALID,10,VALID,1.12773,
2009-07-15, 02:44:04,VALID,999.274,VALID,0,VALID,93.4094,VALID,0,VALID,21.614,VALID,21,VALID,0.662109,
2009-07-15, 02:45:04,VALID,999.237,VALID,0,VALID,93.1958,VALID,0,VALID,21.5555,VALID,21,VALID,0.446875,
2009-07-15, 02:46:04,VALID,999.222,VALID,0,VALID,93.0508,VALID,0,VALID,21.4775,VALID,19,VALID,0.562891,
2009-07-15, 02:47:04,VALID,999.231,VALID,0,VALID,93.0508,VALID,0,VALID,21.4385,VALID,21,VALID,0.529297,
2009-07-15, 02:48:04,VALID,999.245,VALID,0,VALID,93.646,VALID,0,VALID,21.4775,VALID,41,VALID,1.31133,
2009-07-15, 02:49:04,VALID,999.26,VALID,0,VALID,93.8596,VALID,0.112286,VALID,21.5555,VALID,38,VALID,1.28477,
2009-07-15, 02:50:04,VALID,999.248,VALID,0,VALID,93.646,VALID,0,VALID,21.5555,VALID,32,VALID,1.41328,
2009-07-15, 02:51:04,VALID,999.279,VALID,0,VALID,93.4323,VALID,0,VALID,21.5555,VALID,35,VALID,1.28242,
2009-07-15, 02:52:04,VALID,999.267,VALID,0,VALID,93.2645,VALID,0,VALID,21.575,VALID,33,VALID,1.82969,
2009-07-15, 02:53:04,VALID,999.227,VALID,0,VALID,93.1348,VALID,0,VALID,21.575,VALID,26,VALID,1.80938,
2009-07-15, 02:54:04,VALID,999.267,VALID,0,VALID,92.9059,VALID,0,VALID,21.575,VALID,22,VALID,1.56953,
2009-07-15, 02:55:04,VALID,999.218,VALID,0,VALID,92.9288,VALID,0,VALID,21.575,VALID,29,VALID,1.76719,
2009-07-15, 02:56:04,VALID,999.216,VALID,0,VALID,93.0051,VALID,0,VALID,21.5961,VALID,29,VALID,1.45859,
2009-07-15, 02:57:04,VALID,999.226,VALID,0,VALID,92.6923,VALID,0,VALID,21.6173,VALID,16,VALID,1.35234,
2009-07-15, 02:58:04,VALID,999.243,VALID,0,VALID,92.4863,VALID,0,VALID,21.5766,VALID,18,VALID,1.10859,
2009-07-15, 02:59:04,VALID,999.251,VALID,0,VALID,92.7457,VALID,0,VALID,21.5766,VALID,19,VALID,1.23047,
2009-07-15, 03:00:04,VALID,999.267,VALID,0,VALID,93.0051,VALID,0,VALID,21.6156,VALID,23,VALID,1.2082,
2009-07-15, 03:01:04,VALID,999.252,VALID,0,VALID,92.7914,VALID,0,VALID,21.6546,VALID,36,VALID,1.53984,
2009-07-15, 03:02:04,VALID,999.29,VALID,0,VALID,92.5397,VALID,0,VALID,21.6741,VALID,37,VALID,1.47109,
2009-07-15, 03:03:04,VALID,999.294,VALID,0,VALID,92.1353,VALID,0,VALID,21.6546,VALID,36,VALID,1.60664,
2009-07-15, 03:04:04,VALID,999.303,VALID,0,VALID,92.1048,VALID,0,VALID,21.6546,VALID,40,VALID,1.12578,
2009-07-15, 03:05:04,VALID,999.297,VALID,0,VALID,91.8759,VALID,0,VALID,21.5961,VALID,35,VALID,0.8375,
2009-07-15, 03:06:04,VALID,999.291,VALID,0,VALID,91.9903,VALID,0,VALID,21.5571,VALID,19,VALID,1.17656,
2009-07-15, 03:07:04,VALID,999.304,VALID,0,VALID,92.0666,VALID,0,VALID,21.5181,VALID,16,VALID,1.2957,
2009-07-15, 03:08:04,VALID,999.297,VALID,0,VALID,92.0209,VALID,0,VALID,21.4596,VALID,15,VALID,1.14102,
2009-07-15, 03:09:04,VALID,999.318,VALID,0,VALID,92.1582,VALID,0,VALID,21.4011,VALID,21,VALID,1.01094,
2009-07-15, 03:10:04,VALID,999.292,VALID,0,VALID,92.7838,VALID,0,VALID,21.4206,VALID,22,VALID,1.16992,
2009-07-15, 03:11:04,VALID,999.299,VALID,0,VALID,92.9669,VALID,0,VALID,21.4385,VALID,22,VALID,1.30078,
2009-07-15, 03:12:04,VALID,999.282,VALID,0,VALID,92.9364,VALID,0.112286,VALID,21.497,VALID,22,VALID,1.43242,
2009-07-15, 03:13:04,VALID,999.269,VALID,0,VALID,92.616,VALID,0,VALID,21.497,VALID,29,VALID,1.28828,
2009-07-15, 03:14:04,VALID,999.256,VALID,0,VALID,92.6083,VALID,0,VALID,21.5376,VALID,28,VALID,1.3668,
2009-07-15, 03:15:04,VALID,999.275,VALID,0,VALID,92.3108,VALID,0.112286,VALID,21.5165,VALID,29,VALID,1.18242,
2009-07-15, 03:16:04,VALID,999.293,VALID,0,VALID,92.2345,VALID,0,VALID,21.5165,VALID,29,VALID,0.986719,
2009-07-15, 03:17:04,VALID,999.303,VALID,0,VALID,92.4405,VALID,0.112286,VALID,21.497,VALID,29,VALID,0.576563,
2009-07-15, 03:18:04,VALID,999.281,VALID,0,VALID,92.2803,VALID,0,VALID,21.4775,VALID,35,VALID,0.619922,
2009-07-15, 03:19:04,VALID,999.271,VALID,0,VALID,92.3718,VALID,0.112286,VALID,21.458,VALID,42,VALID,1.00117,
2009-07-15, 03:20:04,VALID,999.264,VALID,0,VALID,92.3489,VALID,0,VALID,21.458,VALID,42,VALID,0.940625,
2009-07-15, 03:21:04,VALID,999.248,VALID,0,VALID,92.471,VALID,0,VALID,21.4791,VALID,45,VALID,1.01914,
2009-07-15, 03:22:04,VALID,999.257,VALID,0,VALID,92.326,VALID,0,VALID,21.4596,VALID,48,VALID,0.956641,
2009-07-15, 03:23:04,VALID,999.241,VALID,0,VALID,92.6846,VALID,0.112286,VALID,21.4775,VALID,49,VALID,1.27344,
2009-07-15, 03:24:04,VALID,999.264,VALID,0,VALID,92.6999,VALID,0.112286,VALID,21.5165,VALID,49,VALID,1.11289,
2009-07-15, 03:25:04,VALID,999.276,VALID,0,VALID,92.532,VALID,0.112286,VALID,21.5165,VALID,43,VALID,0.981641,
2009-07-15, 03:26:04,VALID,999.298,VALID,0,VALID,92.5626,VALID,0,VALID,21.5571,VALID,44,VALID,0.626562,
2009-07-15, 03:27:04,VALID,999.287,VALID,0,VALID,92.5397,VALID,0,VALID,21.536,VALID,44,VALID,0.516016,
2009-07-15, 03:28:04,VALID,999.301,VALID,0,VALID,92.5397,VALID,0,VALID,21.5165,VALID,44,VALID,0.682422,
2009-07-15, 03:29:04,VALID,999.309,VALID,0,VALID,92.8143,VALID,0.112286,VALID,21.536,VALID,29,VALID,1.02813,
2009-07-15, 03:30:04,VALID,999.318,VALID,0,VALID,92.8143,VALID,0,VALID,21.5165,VALID,25,VALID,0.955859,
2009-07-15, 03:31:04,VALID,999.349,VALID,0,VALID,92.9517,VALID,0,VALID,21.536,VALID,45,VALID,0.832812,
2009-07-15, 03:32:04,VALID,999.326,VALID,0,VALID,92.883,VALID,0,VALID,21.536,VALID,49,VALID,0.921484,
2009-07-15, 03:33:04,VALID,999.35,VALID,0,VALID,93.0127,VALID,0.112286,VALID,21.5766,VALID,51,VALID,1.24883,
2009-07-15, 03:34:04,VALID,999.354,VALID,0,VALID,92.9974,VALID,0,VALID,21.5945,VALID,53,VALID,0.989844,
2009-07-15, 03:35:04,VALID,999.394,VALID,0,VALID,92.9974,VALID,0,VALID,21.6546,VALID,53,VALID,0.725391,
2009-07-15, 03:36:04,VALID,999.392,VALID,0,VALID,92.9364,VALID,0.112286,VALID,21.692,VALID,54,VALID,0.572266,
2009-07-15, 03:37:04,VALID,999.348,VALID,0,VALID,92.8677,VALID,0,VALID,21.7326,VALID,54,VALID,0.965234,
2009-07-15, 03:38:04,VALID,999.364,VALID,0,VALID,92.7304,VALID,0,VALID,21.7505,VALID,54,VALID,0.878906,
2009-07-15, 03:39:04,VALID,999.353,VALID,0,VALID,92.5168,VALID,0,VALID,21.77,VALID,54,VALID,0.725,
2009-07-15, 03:40:04,VALID,999.308,VALID,0,VALID,92.2955,VALID,0,VALID,21.7505,VALID,53,VALID,0.341406,
2009-07-15, 03:41:04,VALID,999.322,VALID,0,VALID,92.1963,VALID,0,VALID,21.7521,VALID,53,VALID,0.223438,
2009-07-15, 03:42:04,VALID,999.321,VALID,0,VALID,92.1811,VALID,0,VALID,21.731,VALID,53,VALID,0.0621094,
2009-07-15, 03:43:04,VALID,999.301,VALID,0,VALID,92.326,VALID,0,VALID,21.7326,VALID,52,VALID,0.434375,
2009-07-15, 03:44:04,VALID,999.296,VALID,0,VALID,92.4328,VALID,0,VALID,21.7505,VALID,44,VALID,0.475781,
2009-07-15, 03:45:04,VALID,999.307,VALID,0,VALID,92.4405,VALID,0.112286,VALID,21.7505,VALID,3,VALID,0.425391,